CW8826 Weather Reports


Display with metric or nautical units.
time (UTC)temp
F
wind
direction
speed
MPH
gust
MPH
rain 1hr
in
rain 24hr
in
rain mn
in
humidity
%
barometer
mb
20260904013516 80 203 5.0 15.0 0.00 0.00 0.00 15 1010.4
20260904012516 81 248 3.0 9.0 0.00 0.00 0.00 15 1010.4
20260904011518 81 225 3.0 9.0 0.00 0.00 0.00 15 1010.6
20260904010516 81 203 4.0 11.0 0.00 0.00 0.00 14 1010.2
20260904005516 80 225 5.0 10.0 0.00 0.00 0.00 15 1010.2
20260904004516 80 113 3.0 13.0 0.00 0.00 0.00 14 1010.3
20260904003516 80 180 4.0 14.0 0.00 0.00 0.00 14 1010.4
20260904002516 81 225 6.0 16.0 0.00 0.00 0.00 13 1010.3
20260904001516 81 248 3.0 8.0 0.00 0.00 0.00 13 1010.4
20260904000516 82 225 4.0 9.0 0.00 0.00 0.00 13 1010.8
20260903235556 82 225 6.0 13.0 0.00 0.00 0.00 13 1010.9
20260903234516 83 225 5.0 13.0 0.00 0.00 0.00 12 1011.3
20260903233536 83 225 7.0 16.0 0.00 0.00 0.00 11 1011.3
20260903232536 84 203 5.0 23.0 0.00 0.00 0.00 12 1011.5
20260903231516 83 225 5.0 12.0 0.00 0.00 0.00 12 1011.6
20260903230516 83 225 6.0 13.0 0.00 0.00 0.00 12 1012.0
20260903225516 83 225 7.0 15.0 0.00 0.00 0.00 11 1012.1
20260903224516 83 225 7.0 16.0 0.00 0.00 0.00 12 1012.4
20260903223537 83 225 5.0 11.0 0.00 0.00 0.00 13 1012.5
20260903222516 82 225 6.0 22.0 0.00 0.00 0.00 13 1012.3
20260903221516 82 203 7.0 16.0 0.00 0.00 0.00 12 1012.5
20260903220516 82 225 6.0 11.0 0.00 0.00 0.00 12 1012.6
20260903215516 81 225 7.0 18.0 0.00 0.00 0.00 12 1012.6
20260903214556 81 225 6.0 14.0 0.00 0.00 0.00 13 1012.7
20260903213516 81 158 7.0 15.0 0.00 0.00 0.00 12 1013.2
20260903212536 81 203 6.0 14.0 0.00 0.00 0.00 13 1013.4
20260903211536 81 203 8.0 18.0 0.00 0.00 0.00 13 1013.4
20260903210516 81 203 7.0 19.0 0.00 0.00 0.00 13 1013.3
20260903205516 80 225 7.0 15.0 0.00 0.00 0.00 13 1013.4
20260903204516 80 158 5.0 14.0 0.00 0.00 0.00 12 1013.5
20260903203516 80 135 7.0 14.0 0.00 0.00 0.00 13 1014.2
20260903202521 80 225 6.0 15.0 0.00 0.00 0.00 13 1014.5
20260903201516 79 158 6.0 13.0 0.00 0.00 0.00 14 1014.3
20260903200516 79 135 7.0 18.0 0.00 0.00 0.00 14 1014.9
20260903195516 78 225 7.0 16.0 0.00 0.00 0.00 14 1014.7
20260903194516 78 225 7.0 13.0 0.00 0.00 0.00 14 1014.7
20260903193556 78 225 8.0 15.0 0.00 0.00 0.00 13 1015.1
20260903192516 78 158 6.0 11.0 0.00 0.00 0.00 15 1015.3
20260903191516 78 203 5.0 13.0 0.00 0.00 0.00 15 1015.5
20260903190516 77 225 7.0 16.0 0.00 0.00 0.00 15 1015.3
20260903185516 77 158 4.0 11.0 0.00 0.00 0.00 14 1015.3
20260903184516 76 248 3.0 7.0 0.00 0.00 0.00 15 1015.6
20260903183516 76 203 6.0 13.0 0.00 0.00 0.00 14 1015.5
20260903182519 76 158 7.0 17.0 0.00 0.00 0.00 13 1015.7
20260903181516 76 225 7.0 14.0 0.00 0.00 0.00 15 1015.9
20260903180516 75 135 6.0 14.0 0.00 0.00 0.00 14 1016.0
20260903175516 75 225 7.0 17.0 0.00 0.00 0.00 15 1016.0
20260903174536 75 135 6.0 15.0 0.00 0.00 0.00 15 1016.2
20260903173516 75 225 7.0 16.0 0.00 0.00 0.00 15 1016.2
20260903172516 74 158 8.0 19.0 0.00 0.00 0.00 15 1016.1
20260903171516 74 225 5.0 13.0 0.00 0.00 0.00 16 1016.1
20260903170516 73 158 6.0 18.0 0.00 0.00 0.00 15 1016.0
20260903165516 73 225 6.0 14.0 0.00 0.00 0.00 15 1016.1
20260903164516 73 203 7.0 17.0 0.00 0.00 0.00 15 1016.1
20260903163516 73 158 8.0 19.0 0.00 0.00 0.00 14 1016.0
20260903162536 72 180 6.0 15.0 0.00 0.00 0.00 14 1016.0
20260903161516 71 158 4.0 10.0 0.00 0.00 0.00 17 1015.8
20260903160516 70 0.0 4.0 0.00 0.00 0.00 22 1016.0
20260903155516 70 248 2.0 6.0 0.00 0.00 0.00 22 1016.0
20260903154516 69 0.0 2.0 0.00 0.00 0.00 23 1015.9
20260903153516 68 0.0 2.0 0.00 0.00 0.00 20 1016.0
20260903152516 65 113 1.0 3.0 0.00 0.00 0.00 22 1015.4
20260903151536 64 0.0 4.0 0.00 0.00 0.00 26 1015.2
20260903150536 63 0.0 0.0 0.00 0.00 0.00 27 1015.4
20260903145516 63 0.0 2.0 0.00 0.00 0.00 23 1015.1
20260903144516 62 113 2.0 6.0 0.00 0.00 0.00 26 1015.2
20260903143516 61 113 1.0 2.0 0.00 0.00 0.00 25 1015.1
20260903142516 61 113 3.0 4.0 0.00 0.00 0.00 28 1015.1
20260903141516 62 113 2.0 5.0 0.00 0.00 0.00 27 1015.4
20260903140536 61 113 2.0 3.0 0.00 0.00 0.00 29 1015.3
20260903135516 60 113 1.0 3.0 0.00 0.00 0.00 29 1014.9
20260903134516 61 113 1.0 2.0 0.00 0.00 0.00 27 1015.2
20260903133516 61 0.0 0.0 0.00 0.00 0.00 27 1015.0
20260903132516 61 113 2.0 4.0 0.00 0.00 0.00 27 1014.9
20260903131536 62 113 1.0 3.0 0.00 0.00 0.00 26 1015.0
20260903130516 62 113 1.0 2.0 0.00 0.00 0.00 24 1014.8
20260903125536 62 0.0 1.0 0.00 0.00 0.00 25 1014.7
20260903124516 61 113 3.0 7.0 0.00 0.00 0.00 28 1014.3
20260903123516 60 113 3.0 6.0 0.00 0.00 0.00 30 1014.4
20260903122516 60 113 2.0 4.0 0.00 0.00 0.00 30 1014.2
20260903121516 60 113 2.0 4.0 0.00 0.00 0.00 31 1014.1
20260903120516 60 113 1.0 3.0 0.00 0.00 0.00 30 1014.1
20260903115516 61 113 3.0 5.0 0.00 0.00 0.00 30 1014.4
20260903114536 61 113 3.0 5.0 0.00 0.00 0.00 31 1014.2
20260903113516 61 113 2.0 4.0 0.00 0.00 0.00 30 1014.2
20260903112516 61 113 3.0 5.0 0.00 0.00 0.00 30 1014.2
20260903111516 61 113 3.0 6.0 0.00 0.00 0.00 31 1014.3
20260903110516 61 113 3.0 6.0 0.00 0.00 0.00 32 1014.3
20260903105536 61 113 2.0 4.0 0.00 0.00 0.00 32 1014.3
20260903104516 62 113 2.0 3.0 0.00 0.00 0.00 30 1014.6
20260903103516 63 113 3.0 4.0 0.00 0.00 0.00 29 1014.5
20260903102516 63 113 1.0 2.0 0.00 0.00 0.00 28 1014.2
20260903101516 63 113 2.0 4.0 0.00 0.00 0.00 29 1014.1
20260903100516 63 113 4.0 6.0 0.00 0.00 0.00 30 1014.3
20260903095536 63 113 3.0 4.0 0.00 0.00 0.00 29 1013.8
20260903094556 62 113 3.0 5.0 0.00 0.00 0.00 30 1013.8
20260903093516 62 113 2.0 3.0 0.00 0.00 0.00 31 1013.7
20260903092516 62 113 1.0 2.0 0.00 0.00 0.00 30 1013.7
20260903091516 62 0.0 1.0 0.00 0.00 0.00 31 1013.7
20260903090516 63 113 1.0 2.0 0.00 0.00 0.00 31 1013.7
20260903085516 63 0.0 3.0 0.00 0.00 0.00 31 1013.6
20260903084516 64 0.0 3.0 0.00 0.00 0.00 29 1013.9
20260903083536 63 113 1.0 1.0 0.00 0.00 0.00 34 1013.8
20260903082516 64 113 2.0 3.0 0.00 0.00 0.00 31 1013.7
20260903081516 66 113 1.0 2.0 0.00 0.00 0.00 28 1013.9
20260903080516 66 0.0 2.0 0.00 0.00 0.00 27 1013.9
20260903075515 67 0.0 2.0 0.00 0.00 0.00 25 1013.6
20260903074516 67 113 1.0 1.0 0.00 0.00 0.00 25 1013.7
20260903073516 68 113 1.0 2.0 0.00 0.00 0.00 25 1013.6
20260903072516 68 113 2.0 4.0 0.00 0.00 0.00 24 1013.4
20260903071516 67 113 1.0 3.0 0.00 0.00 0.00 25 1013.4
20260903070516 68 0.0 2.0 0.00 0.00 0.00 24 1013.4
20260903065516 69 113 2.0 5.0 0.00 0.00 0.00 22 1013.3
20260903064516 68 113 2.0 7.0 0.00 0.00 0.00 24 1013.2
20260903063516 68 113 1.0 3.0 0.00 0.00 0.00 23 1012.9
20260903062616 69 113 2.0 6.0 0.00 0.00 0.00 23 1013.0
20260903061516 69 113 3.0 8.0 0.00 0.00 0.00 23 1012.9
20260903060516 69 113 3.0 7.0 0.00 0.00 0.00 22 1012.4
20260903055517 70 113 3.0 6.0 0.00 0.00 0.00 23 1012.5
20260903054516 70 113 1.0 4.0 0.00 0.00 0.00 21 1012.4
20260903053517 69 113 3.0 7.0 0.00 0.00 0.00 23 1012.5
20260903052516 69 90 3.0 12.0 0.00 0.00 0.00 25 1012.5
20260903051517 69 90 7.0 14.0 0.00 0.00 0.00 24 1012.5
20260903050536 70 90 3.0 5.0 0.00 0.00 0.00 23 1012.5
20260903045517 69 135 2.0 6.0 0.00 0.00 0.00 24 1012.2
20260903044516 69 135 1.0 2.0 0.00 0.00 0.00 25 1012.3
20260903043521 69 0.0 1.0 0.00 0.00 0.00 24 1012.6
20260903042537 70 135 1.0 2.0 0.00 0.00 0.00 23 1012.4
20260903041517 69 135 1.0 2.0 0.00 0.00 0.00 24 1012.3
20260903040516 70 0.0 2.0 0.00 0.00 0.00 24 1012.0
20260903035516 70 0.0 1.0 0.00 0.00 0.00 23 1011.9
20260903034516 71 135 1.0 3.0 0.00 0.00 0.00 23 1012.1
20260903033517 71 135 2.0 5.0 0.00 0.00 0.00 22 1011.7
20260903032516 72 135 1.0 2.0 0.00 0.00 0.00 21 1011.9
20260903031516 72 135 2.0 4.0 0.00 0.00 0.00 23 1011.9
20260903030516 72 158 3.0 7.0 0.00 0.00 0.00 23 1011.9
20260903025517 72 0.0 1.0 0.00 0.00 0.00 22 1011.8
20260903024517 73 0.0 2.0 0.00 0.00 0.00 21 1011.6
20260903023516 74 270 1.0 3.0 0.00 0.00 0.00 20 1011.4
20260903022516 76 225 4.0 9.0 0.00 0.00 0.00 15 1011.6
20260903021517 76 158 4.0 10.0 0.00 0.00 0.00 14 1011.4
20260903020521 76 158 2.0 5.0 0.00 0.00 0.00 15 1011.5
20260903015516 76 158 1.0 4.0 0.00 0.00 0.00 16 1011.6
20260903014517 77 225 1.0 4.0 0.00 0.00 0.00 15 1012.0